Карточка аэропорта UIUU

Внимание!
Информация на этой странице в стадии наполнения.
Если вы не увидели какой-то информации, или заметили неточность - пожалуйста сообщите нам!
Спасибо!
Команда RU-STAFF
Название аэропортаМухино
Название аэропорта (англ.)Mukhino
Превышение1699 ft. (517.9 m.)
Координаты51°48.45', 107°26.4'
Высота перехода1800m
Эшелон переходаFL090
Коды ответчика2701-2717
Зона ОрВДИркутск РПИ (UIII)
Данные METARUIUU 271100Z 29003MPS 9999 SCT036CB M14/M19 Q1031 R26/810555 NOSIG RMK QFE728/0971
Проноз погоды (TAF)UIUU 270800Z 2709/2809 30003G08MPS 6000 SCT030CB TEMPO 2709/2809 2900 -SHSN FU BKN014CB
NOTAMshow/hide NOTAM
AWOS   TABLE

Информация о ВПП

ВПП Длина ВПП (м.) Покрытие Курс ВПП Частота ILS
263400Цементобетон263110.3
083400Цементобетон83111.3

Диспетчерские позиции

Позывной Наименование органа УВД Частота
UIUU_APPУлан-Удэ-Подход129.300
UIUU_TWRУлан-Удэ-Вышка118.200



Спутниковое изображение